DW2182 Weather Reports


time (UTC)temp
F
wind
direction
speed
knots
gust
knots
rain 1hr
in
rain 24hr
in
rain mn
in
humidity
%
barometer
mb
20260509112516 52 135 1.7 2.6 0.00 0.00 0.00 59 1005.0
20260509111515 52 113 1.7 3.5 0.00 0.00 0.00 57 1004.8
20260509110515 52 135 1.7 4.3 0.00 0.00 0.00 57 1004.7
20260509105516 52 135 0.9 2.6 0.00 0.00 0.00 56 1004.7
20260509104516 53 135 2.6 6.1 0.00 0.00 0.00 55 1004.5
20260509103515 53 135 1.7 7.0 0.00 0.00 0.00 53 1004.7
20260509102515 53 135 2.6 5.2 0.00 0.00 0.00 52 1004.6
20260509101515 53 135 2.6 8.7 0.00 0.00 0.00 50 1004.6
20260509100515 53 135 2.6 6.1 0.00 0.00 0.00 51 1004.2
20260509095535 52 135 3.5 6.1 0.00 0.00 0.00 51 1004.0
20260509094538 52 135 2.6 4.3 0.00 0.00 0.00 52 1003.7
20260509093515 51 135 3.5 7.0 0.00 0.00 0.00 53 1004.1
20260509092517 50 135 5.2 14.8 0.00 0.00 0.00 53 1004.1
20260509091516 49 113 2.6 5.2 0.00 0.00 0.00 55 1002.4
20260509090517 49 90 2.6 3.5 0.00 0.00 0.00 55 1002.4
20260509085537 49 90 1.7 3.5 0.00 0.00 0.00 55 1002.4
20260509084517 48 90 1.7 3.5 0.00 0.00 0.00 55 1002.3
20260509083518 48 90 1.7 3.5 0.00 0.00 0.00 56 1002.2
20260509082517 48 90 1.7 2.6 0.00 0.00 0.00 55 1002.2
20260509081517 48 90 1.7 3.5 0.00 0.00 0.00 56 1002.1
20260509080538 48 90 1.7 3.5 0.00 0.00 0.00 56 1002.2
20260509075518 48 90 1.7 2.6 0.00 0.00 0.00 56 1002.3
20260509074518 48 90 0.9 1.7 0.00 0.00 0.00 57 1002.1
20260509073518 48 90 1.7 2.6 0.00 0.00 0.00 58 1002.2
20260509072537 48 0.0 0.0 0.00 0.00 0.00 56 1002.6
20260509071517 48 0.0 0.0 0.00 0.00 0.00 56 1002.9
20260509070517 48 0.0 0.0 0.00 0.00 0.00 58 1002.9
20260509065519 49 0.0 0.0 0.00 0.00 0.00 57 1002.9
20260509064518 49 0.0 0.0 0.00 0.00 0.00 55 1003.2
20260509063518 50 0.0 0.0 0.00 0.00 0.00 54 1003.3
20260509062517 50 135 0.9 1.7 0.00 0.00 0.00 53 1003.4
20260509061517 51 0.0 0.0 0.00 0.00 0.00 53 1003.6
20260509060517 52 0.0 0.0 0.00 0.00 0.00 52 1003.6
20260509055517 53 0.0 0.0 0.00 0.00 0.00 51 1004.0
20260509054517 53 0.0 0.0 0.00 0.00 0.00 51 1003.8
20260509053517 54 0.0 0.0 0.00 0.00 0.00 47 1004.0
20260509052517 55 0.0 0.0 0.00 0.00 0.00 45 1004.2
20260509051517 56 0.0 0.0 0.00 0.00 0.00 44 1004.2
20260509050517 57 0.0 0.0 0.00 0.00 0.00 41 1004.2
20260509045518 57 0.0 0.0 0.00 0.00 0.00 39 1004.4
20260509044517 58 135 0.9 1.7 0.00 0.00 0.00 37 1004.4
20260509043516 58 135 0.9 1.7 0.00 0.00 0.00 37 1004.5
20260509042517 59 135 0.9 1.7 0.00 0.00 0.00 36 1004.5
20260509041518 59 135 0.9 1.7 0.00 0.00 0.00 36 1004.5
20260509040537 60 135 0.9 2.6 0.00 0.00 0.00 35 1004.6
20260509035518 61 0.0 1.7 0.00 0.00 0.00 34 1004.6
20260509034518 61 0.0 0.9 0.00 0.00 0.00 33 1004.5
20260509033518 62 135 0.9 2.6 0.00 0.00 0.00 33 1004.4
20260509032518 62 135 0.9 2.6 0.00 0.00 0.00 32 1004.4
20260509031537 63 158 1.7 4.3 0.00 0.00 0.00 32 1004.4
20260509030517 63 135 2.6 7.8 0.00 0.00 0.00 31 1004.3
20260509025517 64 135 2.6 6.1 0.00 0.00 0.00 30 1004.2
20260509024518 64 135 2.6 7.8 0.00 0.00 0.00 30 1004.2
20260509023518 65 135 2.6 7.0 0.00 0.00 0.00 29 1004.0
20260509022517 65 158 3.5 8.7 0.00 0.00 0.00 28 1003.8
20260509021517 66 135 3.5 7.0 0.00 0.00 0.00 27 1003.7
20260509020519 67 135 2.6 7.8 0.00 0.00 0.00 26 1003.4
20260509015517 67 135 4.3 8.7 0.00 0.00 0.00 26 1003.2
20260509014517 68 135 3.5 7.8 0.00 0.00 0.00 25 1002.9
20260509013517 69 135 3.5 9.6 0.00 0.00 0.00 25 1002.8
20260509012517 69 135 4.3 10.4 0.00 0.00 0.00 24 1002.8
20260509011537 70 158 4.3 10.4 0.00 0.00 0.00 24 1002.6
20260509010517 70 135 5.2 9.6 0.00 0.00 0.00 25 1002.5
20260509005517 71 135 6.1 12.2 0.00 0.00 0.00 24 1002.4
20260509004517 71 135 3.5 8.7 0.00 0.00 0.00 25 1002.3
20260509003517 72 135 6.1 14.8 0.00 0.00 0.00 25 1002.1
20260509002537 72 135 7.0 13.9 0.00 0.00 0.00 26 1001.9
20260509001518 73 135 5.2 9.6 0.00 0.00 0.00 27 1001.9
20260509000517 73 135 6.1 13.0 0.00 0.00 0.00 26 1001.9
20260508235517 73 135 7.0 14.8 0.00 0.00 0.00 26 1001.8
20260508234518 74 135 7.0 13.9 0.00 0.00 0.00 25 1001.9
20260508233517 74 135 7.8 13.9 0.00 0.00 0.00 25 1002.0
20260508232517 74 135 5.2 10.4 0.00 0.00 0.00 26 1001.9
20260508231557 74 135 7.8 19.1 0.00 0.00 0.00 25 1002.0
20260508230517 75 135 6.1 12.2 0.00 0.00 0.00 25 1002.1
20260508225537 75 135 6.1 13.9 0.00 0.00 0.00 25 1001.9
20260508224538 75 135 6.1 13.9 0.00 0.00 0.00 24 1001.7
20260508223517 76 135 7.8 13.0 0.00 0.00 0.00 23 1001.6
20260508222517 76 135 7.8 14.8 0.00 0.00 0.00 23 1001.6
20260508221517 76 135 5.2 9.6 0.00 0.00 0.00 23 1001.5
20260508220517 77 135 7.0 12.2 0.00 0.00 0.00 22 1001.5
20260508215517 78 135 6.1 10.4 0.00 0.00 0.00 21 1001.7
20260508214517 79 135 4.3 8.7 0.00 0.00 0.00 22 1001.8
20260508213517 78 113 4.3 9.6 0.00 0.00 0.00 22 1002.0
20260508212537 77 135 5.2 9.6 0.00 0.00 0.00 22 1002.0
20260508211517 76 135 4.3 8.7 0.00 0.00 0.00 23 1002.2
20260508210517 76 135 6.1 13.0 0.00 0.00 0.00 22 1002.5
20260508205517 77 113 5.2 11.3 0.00 0.00 0.00 21 1002.6
20260508204537 76 135 5.2 9.6 0.00 0.00 0.00 24 1002.8
20260508203517 75 135 2.6 4.3 0.00 0.00 0.00 23 1003.0
20260508202517 75 135 5.2 8.7 0.00 0.00 0.00 22 1003.2
20260508201517 76 135 2.6 7.8 0.00 0.00 0.00 21 1003.4
20260508200517 76 113 3.5 7.8 0.00 0.00 0.00 21 1003.5
20260508195517 78 135 6.1 12.2 0.00 0.00 0.00 21 1003.7
20260508194537 76 135 5.2 11.3 0.00 0.00 0.00 21 1003.6
20260508193516 76 135 4.3 7.8 0.00 0.00 0.00 22 1003.9
20260508192516 76 135 4.3 7.0 0.00 0.00 0.00 22 1004.0
20260508191516 76 135 5.2 10.4 0.00 0.00 0.00 21 1004.0
20260508190517 77 135 7.8 13.9 0.00 0.00 0.00 20 1004.2
20260508185517 77 135 7.0 11.3 0.00 0.00 0.00 20 1004.3
20260508184517 78 135 3.5 10.4 0.00 0.00 0.00 20 1004.2
20260508183516 78 113 6.1 13.0 0.00 0.00 0.00 20 1004.6
20260508182516 77 135 4.3 9.6 0.00 0.00 0.00 20 1004.6
20260508181517 77 113 5.2 10.4 0.00 0.00 0.00 19 1004.8
20260508180517 77 135 7.0 13.0 0.00 0.00 0.00 19 1004.9
20260508175517 77 113 4.3 7.0 0.00 0.00 0.00 18 1005.1
20260508174517 76 135 5.2 11.3 0.00 0.00 0.00 20 1005.4
20260508173517 76 135 4.3 9.6 0.00 0.00 0.00 20 1005.5
20260508172537 76 45 1.7 4.3 0.00 0.00 0.00 21 1005.8
20260508171517 75 135 5.2 9.6 0.00 0.00 0.00 21 1006.0
20260508170517 74 135 6.1 10.4 0.00 0.00 0.00 21 1006.1
20260508165516 74 135 5.2 8.7 0.00 0.00 0.00 22 1006.4
20260508164517 74 113 3.5 7.8 0.00 0.00 0.00 20 1006.5
20260508163517 72 135 5.2 9.6 0.00 0.00 0.00 22 1006.8
20260508162536 71 135 5.2 8.7 0.00 0.00 0.00 24 1006.8
20260508161517 70 135 3.5 7.8 0.00 0.00 0.00 22 1007.0
20260508160536 70 135 5.2 9.6 0.00 0.00 0.00 24 1007.1
20260508155516 70 135 5.2 12.2 0.00 0.00 0.00 23 1007.1
20260508154516 69 135 3.5 7.0 0.00 0.00 0.00 25 1007.2
20260508153516 69 135 4.3 9.6 0.00 0.00 0.00 25 1007.2
20260508152517 68 135 2.6 8.7 0.00 0.00 0.00 27 1007.2
20260508151517 67 113 3.5 10.4 0.00 0.00 0.00 26 1007.4
20260508150537 66 113 4.3 8.7 0.00 0.00 0.00 28 1007.5
20260508145517 64 113 3.5 7.0 0.00 0.00 0.00 30 1007.7
20260508144517 64 135 4.3 8.7 0.00 0.00 0.00 31 1007.8
20260508143536 63 113 3.5 6.1 0.00 0.00 0.00 33 1007.8
20260508142516 61 113 3.5 7.8 0.00 0.00 0.00 35 1007.9
20260508141537 59 113 2.6 5.2 0.00 0.00 0.00 38 1008.0
20260508140517 58 90 2.6 5.2 0.00 0.00 0.00 41 1008.1
20260508135516 57 113 1.7 3.5 0.00 0.00 0.00 42 1008.1
20260508134536 55 90 2.6 5.2 0.00 0.00 0.00 44 1008.1
20260508133536 54 90 3.5 7.8 0.00 0.00 0.00 45 1008.2
20260508132516 53 90 3.5 7.0 0.00 0.00 0.00 45 1008.2
20260508131516 53 90 5.2 7.8 0.00 0.00 0.00 47 1008.3
20260508130516 52 90 3.5 7.0 0.00 0.00 0.00 47 1008.3
20260508125516 51 90 4.3 8.7 0.00 0.00 0.00 49 1008.3
20260508124516 49 90 4.3 7.0 0.00 0.00 0.00 50 1008.3
20260508123516 47 90 3.5 6.1 0.00 0.00 0.00 53 1008.3
20260508122516 46 90 2.6 5.2 0.00 0.00 0.00 53 1008.2
20260508121516 46 90 4.3 7.0 0.00 0.00 0.00 53 1008.3
20260508120517 45 90 5.2 6.1 0.00 0.00 0.00 54 1008.1
20260508115517 44 90 5.2 7.0 0.00 0.00 0.00 55 1008.1
20260508114516 43 113 4.3 6.1 0.00 0.00 0.00 56 1008.0
20260508113536 43 90 4.3 7.0 0.00 0.00 0.00 56 1008.0